When you browse on this site, cookies collect data to enhance your experience and personalize the content and advertising you see.
Visit our Privacy Policy to learn more. By continuing to use the site, you agree to this use of cookies and data.
  • In Deutschland
  • Länderverzeichnis
  • Für 7 Tage
  • Wassertemperatur
  • Satellitenkarten
  • Wetterkarte
  • Widgets
  • user-avatar
    Anmelden

    Stündliche Wetter Kiustendil

    Heute, 18 Januar, Freitag

    Zeit Temperatur Niederschläge Wind Luftdruck Luftfeuchtigkeit
    00:00 -8°C° 0 mm 1 m/S 619 mmHg 69%
    01:00 -8°C° 0 mm 1 m/S 619 mmHg 73%
    02:00 -8°C° 0 mm 1 m/S 619 mmHg 74%
    03:00 -8°C° 0 mm 1 m/S 619 mmHg 76%
    04:00 -8°C° 0 mm 1 m/S 619 mmHg 77%
    05:00 -8°C° 0 mm 1 m/S 619 mmHg 77%
    06:00 -8°C° 0 mm 1 m/S 619 mmHg 78%
    07:00 -9°C° 0 mm 1 m/S 619 mmHg 77%
    08:00 -7°C° 0 mm 1 m/S 619 mmHg 80%
    09:00 -4°C° 0 mm 1 m/S 620 mmHg 83%
    10:00 -3°C° 0 mm 1 m/S 621 mmHg 85%
    11:00 -2°C° 0 mm 1 m/S 621 mmHg 88%
    12:00 -2°C° 0 mm 1 m/S 621 mmHg 90%
    13:00 -1°C° 0 mm 1 m/S 621 mmHg 92%
    14:00 -2°C° 0 mm 1 m/S 620 mmHg 88%
    15:00 -2°C° 0 mm 1 m/S 620 mmHg 85%
    16:00 -3°C° 0 mm 1 m/S 620 mmHg 81%
    17:00 -3°C° 0 mm 1 m/S 620 mmHg 82%
    18:00 -4°C° 0 mm 1 m/S 620 mmHg 82%
    19:00 -4°C° 0 mm 1 m/S 620 mmHg 83%
    20:00 -4°C° 0 mm 1 m/S 620 mmHg 84%
    21:00 -4°C° 0 mm 1 m/S 620 mmHg 85%
    22:00 -4°C° 0 mm 1 m/S 620 mmHg 86%
    23:00 -4°C° 0.1 mm 1 m/S 620 mmHg 87%

    Morgen, 19 Januar, Samstag

    Zeit Temperatur Niederschläge Wind Luftdruck Luftfeuchtigkeit
    00:00 -5°C° 0.1 mm 0 m/S 621 mmHg 87%
    01:00 -5°C° 0.1 mm 0 m/S 621 mmHg 88%
    02:00 -5°C° 0.2 mm 0 m/S 621 mmHg 89%
    03:00 -5°C° 0.2 mm 0 m/S 621 mmHg 89%
    04:00 -5°C° 0.2 mm 0 m/S 621 mmHg 89%
    05:00 -5°C° 0.1 mm 0 m/S 621 mmHg 90%
    06:00 -6°C° 0.1 mm 0 m/S 621 mmHg 90%
    07:00 -6°C° 0.1 mm 0 m/S 621 mmHg 90%
    08:00 -5°C° 0.1 mm 0 m/S 621 mmHg 92%
    09:00 -4°C° 0.1 mm 0 m/S 622 mmHg 94%
    10:00 -3°C° 0.1 mm 0 m/S 622 mmHg 97%
    11:00 -3°C° 0 mm 0 m/S 622 mmHg 96%
    12:00 -2°C° 0 mm 0 m/S 622 mmHg 95%
    13:00 -2°C° 0 mm 0 m/S 622 mmHg 94%
    14:00 -2°C° 0 mm 0 m/S 622 mmHg 94%
    15:00 -3°C° 0 mm 0 m/S 621 mmHg 93%
    16:00 -4°C° 0 mm 0 m/S 621 mmHg 93%
    17:00 -3°C° 0 mm 1 m/S 621 mmHg 93%
    18:00 -4°C° 0 mm 1 m/S 621 mmHg 92%
    19:00 -4°C° 0 mm 1 m/S 621 mmHg 92%
    20:00 -4°C° 0 mm 1 m/S 621 mmHg 92%
    21:00 -4°C° 0 mm 1 m/S 621 mmHg 92%
    22:00 -4°C° 0 mm 1 m/S 621 mmHg 92%
    23:00 -4°C° 0 mm 1 m/S 621 mmHg 92%

    übermorgen, 20 Januar, Sonntag

    Zeit Temperatur Niederschläge Wind Luftdruck Luftfeuchtigkeit
    00:00 -4°C° 0 mm 1 m/S 621 mmHg 93%
    01:00 -4°C° 0 mm 1 m/S 621 mmHg 93%
    02:00 -4°C° 0 mm 1 m/S 621 mmHg 93%
    03:00 -4°C° 0 mm 1 m/S 620 mmHg 94%
    04:00 -4°C° 0 mm 1 m/S 620 mmHg 94%
    05:00 -4°C° 0 mm 1 m/S 620 mmHg 94%
    06:00 -4°C° 0 mm 1 m/S 620 mmHg 94%
    07:00 -4°C° 0 mm 1 m/S 620 mmHg 95%
    08:00 -3°C° 0 mm 1 m/S 620 mmHg 95%
    09:00 -2°C° 0 mm 1 m/S 621 mmHg 96%
    10:00 -1°C° 0 mm 1 m/S 621 mmHg 96%
    11:00 -1°C° 0 mm 1 m/S 620 mmHg 96%
    12:00 -3°C° 0 mm 2 m/S 620 mmHg 95%
    13:00 -3°C° 0 mm 2 m/S 620 mmHg 95%
    14:00 -1°C° 0.1 mm 1 m/S 620 mmHg 95%
    15:00 -1°C° 0.1 mm 1 m/S 619 mmHg 96%
    16:00 -2°C° 0.1 mm 1 m/S 619 mmHg 96%
    17:00 -2°C° 0.3 mm 1 m/S 619 mmHg 96%
    18:00 -2°C° 0.3 mm 1 m/S 619 mmHg 96%
    19:00 -3°C° 0.3 mm 1 m/S 619 mmHg 96%
    20:00 -3°C° 0.1 mm 1 m/S 620 mmHg 96%
    21:00 -3°C° 0.1 mm 1 m/S 620 mmHg 95%
    22:00 -3°C° 0.1 mm 1 m/S 620 mmHg 95%
    23:00 -4°C° 0 mm 1 m/S 620 mmHg 95%

    21 Januar, Montag

    Zeit Temperatur Niederschläge Wind Luftdruck Luftfeuchtigkeit
    00:00 -5°C° 0 mm 0 m/S 620 mmHg 95%
    01:00 -5°C° 0 mm 0 m/S 620 mmHg 95%
    02:00 -4°C° 0 mm 1 m/S 620 mmHg 94%
    03:00 -6°C° 0 mm 1 m/S 619 mmHg 93%
    04:00 -6°C° 0 mm 1 m/S 619 mmHg 93%
    05:00 -6°C° 0 mm 1 m/S 620 mmHg 92%
    06:00 -7°C° 0 mm 1 m/S 620 mmHg 92%
    07:00 -7°C° 0 mm 1 m/S 620 mmHg 91%
    08:00 -6°C° 0 mm 1 m/S 621 mmHg 90%
    09:00 -4°C° 0 mm 1 m/S 621 mmHg 88%
    10:00 -2°C° 0 mm 1 m/S 622 mmHg 86%
    11:00 -2°C° 0 mm 1 m/S 622 mmHg 85%
    12:00 -2°C° 0 mm 1 m/S 622 mmHg 85%
    13:00 -1°C° 0 mm 1 m/S 622 mmHg 84%
    14:00 -2°C° 0 mm 1 m/S 622 mmHg 86%
    15:00 -3°C° 0 mm 1 m/S 622 mmHg 88%
    16:00 -3°C° 0 mm 1 m/S 622 mmHg 89%
    17:00 -4°C° 0 mm 1 m/S 622 mmHg 90%
    18:00 -6°C° 0 mm 1 m/S 622 mmHg 91%
    19:00 -7°C° 0 mm 1 m/S 622 mmHg 91%
    20:00 -7°C° 0 mm 1 m/S 622 mmHg 90%
    21:00 -7°C° 0 mm 1 m/S 622 mmHg 89%
    22:00 -7°C° 0 mm 1 m/S 622 mmHg 89%
    23:00 -7°C° 0 mm 1 m/S 622 mmHg 88%

    22 Januar, Dienstag

    Zeit Temperatur Niederschläge Wind Luftdruck Luftfeuchtigkeit
    00:00 -7°C° 0 mm 1 m/S 622 mmHg 87%
    01:00 -7°C° 0 mm 1 m/S 622 mmHg 86%
    02:00 -7°C° 0 mm 1 m/S 622 mmHg 87%
    03:00 -7°C° 0 mm 1 m/S 622 mmHg 87%
    04:00 -7°C° 0 mm 1 m/S 621 mmHg 87%
    05:00 -7°C° 0.1 mm 1 m/S 621 mmHg 88%
    06:00 -7°C° 0.1 mm 1 m/S 621 mmHg 89%
    07:00 -7°C° 0.1 mm 1 m/S 621 mmHg 90%
    08:00 -6°C° 0.2 mm 1 m/S 621 mmHg 88%
    09:00 -4°C° 0.2 mm 1 m/S 622 mmHg 87%
    10:00 -3°C° 0.2 mm 1 m/S 622 mmHg 86%
    11:00 -2°C° 0.2 mm 1 m/S 621 mmHg 87%
    12:00 -4°C° 0.2 mm 2 m/S 621 mmHg 87%
    13:00 -3°C° 0.2 mm 2 m/S 620 mmHg 88%
    14:00 -4°C° 0.1 mm 2 m/S 620 mmHg 89%
    15:00 -4°C° 0.1 mm 2 m/S 619 mmHg 91%
    16:00 -5°C° 0.1 mm 2 m/S 618 mmHg 92%
    17:00 -5°C° 0 mm 2 m/S 618 mmHg 93%
    18:00 -5°C° 0 mm 2 m/S 617 mmHg 93%
    19:00 -5°C° 0 mm 2 m/S 617 mmHg 93%
    20:00 -6°C° 0 mm 2 m/S 616 mmHg 93%
    21:00 -6°C° 0 mm 2 m/S 616 mmHg 93%
    22:00 -6°C° 0 mm 2 m/S 615 mmHg 94%
    23:00 -6°C° 0.1 mm 2 m/S 615 mmHg 94%

    23 Januar, Mittwoch

    Zeit Temperatur Niederschläge Wind Luftdruck Luftfeuchtigkeit
    00:00 -6°C° 0.1 mm 2 m/S 614 mmHg 94%
    01:00 -4°C° 0.1 mm 1 m/S 613 mmHg 94%
    02:00 -3°C° 0.2 mm 1 m/S 613 mmHg 94%
    03:00 -3°C° 0.2 mm 1 m/S 612 mmHg 94%
    04:00 -5°C° 0.2 mm 2 m/S 611 mmHg 94%
    05:00 -5°C° 0.3 mm 2 m/S 611 mmHg 94%
    06:00 -5°C° 0.3 mm 2 m/S 611 mmHg 94%
    07:00 -5°C° 0.3 mm 2 m/S 610 mmHg 94%
    08:00 -4°C° 0.2 mm 2 m/S 610 mmHg 94%
    09:00 -4°C° 0.2 mm 3 m/S 610 mmHg 94%
    10:00 -4°C° 0.2 mm 3 m/S 610 mmHg 94%
    11:00 -4°C° 0 mm 4 m/S 610 mmHg 91%
    12:00 -3°C° 0 mm 4 m/S 609 mmHg 88%
    13:00 -3°C° 0 mm 4 m/S 609 mmHg 86%
    14:00 -4°C° 0.1 mm 4 m/S 608 mmHg 88%
    15:00 -4°C° 0.1 mm 3 m/S 608 mmHg 90%
    16:00 -5°C° 0.1 mm 3 m/S 608 mmHg 92%
    17:00 -5°C° 0.1 mm 3 m/S 608 mmHg 92%
    18:00 -5°C° 0.1 mm 3 m/S 608 mmHg 92%
    19:00 -6°C° 0.1 mm 3 m/S 607 mmHg 92%
    20:00 -6°C° 0 mm 3 m/S 607 mmHg 93%
    21:00 -7°C° 0 mm 3 m/S 607 mmHg 93%
    22:00 -7°C° 0 mm 3 m/S 607 mmHg 93%
    23:00 -7°C° 0 mm 3 m/S 606 mmHg 93%
    Mehr zeigen